EUTELSAT 33B 1 27554U 02051A 21063.83916602 .00000114 00000-0 00000-0 0 9994 2 27554 4.3713 78.2750 0015555 285.9204 121.2749 1.00297848 29447 DELTA 4 R/B 1 27555U 02051B 21063.23247881 -.00000134 00000-0 -28072-3 0 9991 2 27555 13.9366 73.9373 7119519 214.5610 66.5689 2.35604945157335